CW9773 Weather Reports


time (UTC)temp
C
wind
direction
speed
KPH
gust
KPH
rain 1hr
cm
rain 24hr
cm
rain mn
cm
humidity
%
barometer
mb
20260503184531 19 227 0.0 0.0 0.00 0.00 0.00 36 1016.3
20260503183035 19 211 0.0 0.0 0.00 0.00 0.00 39 1016.5
20260503181551 18 219 0.0 0.0 0.00 0.00 0.00 38 1016.8
20260503180026 18 202 0.0 0.0 0.00 0.00 0.00 37 1017.1
20260503174542 17 196 0.0 0.0 0.00 0.00 0.00 38 1017.2
20260503173004 16 199 0.0 0.0 0.00 0.00 0.00 41 1017.2
20260503171534 16 167 0.0 0.0 0.00 0.00 0.00 40 1017.4
20260503150107 11 273 0.0 0.0 0.00 0.00 0.00 54 1018.8
20260503120116 1 273 0.0 0.0 0.00 0.00 0.00 83 1017.9
20260503090104 2 273 0.0 0.0 0.00 0.00 0.00 81 1015.8
20260503081522 2 273 0.0 0.0 0.00 0.00 0.00 80 1015.4
20260503071516 2 273 0.0 0.0 0.00 0.00 0.00 79 1015.1
20260503054504 3 273 0.0 0.0 0.00 0.00 0.00 77 1014.5
20260503053037 3 273 0.0 0.0 0.00 0.00 0.00 77 1014.7
20260503051605 3 273 0.0 0.0 0.00 0.00 0.00 77 1014.7
20260503050031 3 273 0.0 0.0 0.00 0.00 0.00 77 1014.4
20260503044549 3 275 0.0 0.0 0.00 0.00 0.00 77 1014.3
20260503043018 3 275 0.0 0.0 0.00 0.00 0.00 77 1013.9
20260503041540 3 275 0.0 0.0 0.00 0.00 0.00 76 1013.8
20260503034545 4 275 0.0 0.0 0.00 0.00 0.00 75 1013.6
20260503033100 4 275 0.0 0.0 0.00 0.00 0.00 74 1013.5
20260503031536 4 275 0.0 0.0 0.00 0.00 0.00 74 1013.5
20260503030056 5 275 0.0 0.0 0.00 0.00 0.00 73 1013.5
20260503024512 5 275 0.0 0.0 0.00 0.00 0.00 72 1013.4
20260503023046 5 275 0.0 0.0 0.00 0.00 0.00 71 1013.3
20260503021516 5 275 0.0 0.0 0.00 0.00 0.00 71 1013.2
20260503020041 5 275 0.0 0.0 0.00 0.00 0.00 69 1013.0
20260503014620 6 275 0.0 0.0 0.00 0.00 0.00 69 1012.8
20260503013026 6 275 0.0 0.0 0.00 0.00 0.00 67 1012.5
20260503011548 6 275 0.0 0.0 0.00 0.00 0.00 65 1012.3
20260503010018 7 275 0.0 0.0 0.00 0.00 0.00 64 1012.1
20260503004540 7 275 0.0 0.0 0.00 0.00 0.00 62 1011.9
20260503003013 8 275 0.0 0.0 0.00 0.00 0.00 60 1011.7
20260503001536 8 275 0.0 0.0 0.00 0.00 0.00 59 1011.5
20260503000002 9 275 0.0 0.0 0.00 0.00 0.00 58 1011.3
20260502234542 10 275 0.0 0.0 0.00 0.00 0.00 56 1011.0
20260502233108 10 294 0.0 0.0 0.00 0.00 0.00 54 1011.0
20260502231535 10 261 0.0 0.0 0.00 0.00 0.00 54 1010.7
20260502230008 11 293 0.0 0.0 0.00 0.00 0.00 53 1010.6
20260502224542 11 242 0.0 0.0 0.00 0.00 0.00 53 1010.6
20260502223101 11 311 0.0 0.0 0.00 0.00 0.00 51 1010.5
20260502221531 11 304 0.0 0.0 0.00 0.00 0.00 53 1010.2
20260502220057 11 304 0.0 0.0 0.00 0.00 0.00 48 1010.0
20260502214509 12 304 0.0 0.0 0.00 0.00 0.00 48 1009.8
20260502213045 12 303 0.0 0.0 0.00 0.00 0.00 48 1009.5
20260502211529 12 258 0.0 0.0 0.00 0.00 0.00 47 1009.4
20260502210055 13 266 0.0 0.0 0.00 0.00 0.00 46 1009.3
20260502204508 13 302 0.0 0.0 0.00 0.00 0.00 45 1009.3
20260502203038 15 326 0.0 0.0 0.00 0.00 0.00 44 1009.2
20260502201603 16 153 0.0 0.0 0.00 0.00 0.00 42 1009.2
20260502200023 16 337 0.0 0.0 0.00 0.00 0.00 40 1009.3
20260502194606 16 260 0.0 0.0 0.00 0.00 0.00 44 1009.4
20260502193024 16 265 0.0 0.0 0.00 0.00 0.00 41 1009.5
20260502191550 16 244 0.0 0.0 0.00 0.00 0.00 40 1009.7
20260502190031 16 332 0.0 1.6 0.00 0.00 0.00 40 1009.9